Wind_Speed
20 18 18 17 17 17 19 19 19 19 19 18 18 18 17 17 17 16 14 14 14 13 13 13 12 13 13 14 15 16 18 19 20 21 21 20 18 17 16 15 14 13 11 10 9 8 7 8 8 8 8 7 7 7 7 6 6 6 5 7 10 10 9 9 10 11 14 17 18 18 17 16 14 13 14 13 13 13 15 16 17 17 18 18 17
21 20 18 17 17 17 18 19 19 19 19 18 18 18 17 18 18 17 16 14 14 14 13 13 13 13 14 14 15 18 20 20 21 21 20 18 17 16 15 14 13 12 10 9 8 7 6 7 7 8 9 9 9 9 8 7 7 7 6 8 12 11 9 8 9 11 13 16 17 17 16 15 14 13 13 13 12 13 14 15 15 16 16 17 16
21 20 18 18 16 16 17 19 20 19 19 18 18 18 18 19 19 17 16 15 14 14 14 13 13 13 14 15 15 18 20 20 20 19 18 16 15 15 15 14 13 12 11 10 8 7 6 7 7 9 11 12 13 12 10 9 9 9 7 9 14 13 10 8 8 10 12 15 17 16 15 15 13 13 12 12 12 12 13 14 14 14 15 15 14
20 20 18 17 16 16 17 19 20 20 19 18 17 17 18 19 19 17 16 15 15 14 14 14 13 13 14 15 15 17 18 18 17 17 16 15 14 14 14 13 12 12 12 11 9 8 8 8 9 11 14 15 16 15 13 11 12 12 10 12 16 15 12 9 8 10 12 15 16 15 14 13 12 12 11 11 11 11 12 13 13 13 14 13 13
20 19 18 17 16 16 17 18 19 20 19 18 17 17 18 20 19 17 16 16 15 14 14 14 13 13 13 14 15 16 16 16 15 15 15 15 14 14 14 12 12 12 12 12 10 9 10 10 10 12 16 18 18 17 15 14 14 14 12 14 18 18 14 11 10 12 15 15 15 14 13 13 12 11 11 11 11 10 11 12 12 12 12 12 12
21 19 17 16 15 15 16 18 19 19 19 18 17 17 17 20 20 18 17 16 15 14 13 13 13 13 13 13 14 14 15 14 14 15 15 15 14 14 13 12 11 11 11 12 11 10 11 12 11 13 18 20 20 19 17 16 17 17 15 16 19 19 17 14 14 16 17 16 14 14 13 12 11 11 10 10 10 9 10 10 11 11 11 11 11
20 18 17 16 15 15 16 17 18 18 18 18 17 17 17 19 20 19 17 17 15 14 13 12 12 12 12 12 12 12 13 13 13 14 15 13 12 12 11 11 11 11 11 12 12 11 11 13 12 14 19 21 21 21 20 18 18 19 17 18 20 21 19 16 16 17 16 15 13 13 12 12 10 9 10 10 9 9 9 9 10 10 10 10 9
20 19 17 16 15 15 16 17 17 17 18 18 17 17 18 19 20 19 18 17 15 14 12 11 11 11 11 11 11 11 11 12 12 12 12 11 9 9 10 10 11 11 10 11 12 12 12 14 13 15 20 22 23 23 21 19 18 19 18 18 20 22 21 18 16 16 15 14 13 12 12 12 9 8 8 9 9 8 8 8 8 9 9 9 8
20 19 18 16 15 15 16 17 17 17 17 17 18 18 18 19 20 20 18 16 15 14 12 11 10 10 10 10 10 11 10 10 11 10 10 9 7 7 8 8 9 10 10 11 11 12 13 14 14 16 21 23 23 23 21 20 19 18 17 18 19 21 22 20 17 16 15 14 13 12 11 11 10 9 8 8 8 8 7 7 7 8 8 8 8
21 19 18 16 14 15 15 16 16 16 16 17 18 18 18 18 20 20 18 17 15 14 12 11 10 10 9 9 9 10 10 10 10 9 8 7 6 7 7 7 8 9 9 10 10 12 13 14 15 17 21 22 22 21 20 19 18 17 17 17 18 20 21 20 19 17 15 13 13 13 11 11 11 10 8 7 8 8 7 6 6 7 7 7 7
21 20 18 16 14 14 15 16 16 16 16 17 17 17 17 17 19 20 19 17 15 14 13 11 11 10 9 8 8 9 10 10 10 10 9 8 7 7 7 6 6 6 8 9 9 11 14 15 15 16 19 20 20 19 18 17 16 16 15 16 17 18 19 20 19 17 15 13 12 12 13 11 9 9 8 7 7 7 7 6 6 6 7 7 7
21 20 19 17 15 13 14 15 16 16 17 16 16 16 16 16 18 19 19 17 16 14 13 11 11 10 9 8 8 8 9 9 10 10 9 8 7 6 6 6 5 4 5 7 8 9 13 15 16 16 17 18 18 18 17 17 16 14 13 14 14 14 16 17 17 16 14 13 12 11 13 11 8 8 8 7 7 7 7 6 5 6 6 6 6
21 21 20 18 16 14 14 15 15 16 17 17 16 16 15 15 16 18 19 18 16 15 13 12 11 10 9 8 8 8 8 9 9 10 10 9 8 7 6 6 5 4 3 5 5 6 10 14 17 17 16 16 16 17 18 17 15 14 13 13 13 11 12 14 15 16 15 14 12 11 12 12 9 7 7 7 6 6 6 6 5 5 5 5 5
21 22 21 19 17 15 14 14 14 15 16 17 16 16 15 14 15 17 18 18 17 15 13 12 12 10 8 8 8 8 8 8 9 10 10 10 9 8 8 7 5 5 4 4 5 5 7 11 15 18 18 16 16 17 18 17 15 13 13 13 13 11 9 11 14 15 15 14 12 12 12 11 9 8 7 7 6 6 6 6 6 5 5 4 4
20 22 21 19 18 17 15 14 14 14 15 16 16 16 15 14 15 16 17 17 16 15 14 12 12 10 8 8 8 8 8 7 9 10 10 9 8 8 8 7 6 6 5 5 6 5 6 8 13 18 19 17 17 17 18 16 14 13 12 12 13 12 9 8 12 14 14 13 12 12 11 11 10 9 8 8 7 6 6 6 6 5 4 4 3
19 21 22 21 19 18 16 15 14 13 14 15 15 15 14 14 14 14 15 16 16 15 14 13 12 10 8 8 9 8 7 7 9 11 10 9 8 9 8 6 6 7 6 4 5 5 7 9 11 18 20 18 18 19 18 16 14 13 12 12 12 13 11 8 10 13 12 11 11 11 10 10 10 10 9 8 8 7 6 7 7 6 5 4 3
17 20 22 21 20 19 17 16 15 14 13 13 14 14 14 14 13 13 14 15 15 14 14 14 13 11 9 9 9 9 7 8 9 11 10 9 8 8 7 5 4 6 6 3 3 4 7 10 11 17 20 18 19 20 19 16 15 14 12 11 11 12 11 9 9 10 10 9 9 9 8 8 10 10 10 9 9 9 8 8 8 7 6 4 4
16 19 22 22 21 19 17 16 15 14 13 13 12 13 13 13 13 13 13 13 14 14 14 14 14 12 10 9 10 9 8 8 10 11 10 9 8 7 6 5 4 5 7 4 2 3 6 11 12 17 21 18 19 22 21 18 16 15 13 12 11 11 11 10 9 7 8 7 7 7 6 7 9 10 10 9 9 9 9 8 8 8 7 5 4
16 19 21 21 20 19 18 15 15 14 13 12 12 12 12 12 11 12 12 12 13 13 13 14 14 12 10 10 11 10 8 9 11 11 11 9 7 7 6 5 4 5 6 4 2 2 5 10 12 16 21 20 20 24 23 20 17 15 13 12 12 11 10 11 9 6 6 6 5 5 5 5 6 8 9 8 8 9 9 8 8 8 7 6 5
17 19 20 20 20 19 18 16 15 14 14 13 12 12 12 12 11 11 11 11 11 11 12 13 12 11 11 11 12 10 9 10 11 12 12 10 7 7 6 6 4 4 5 4 2 2 4 8 11 15 21 22 20 24 25 21 18 15 13 13 13 11 10 10 10 7 6 5 4 4 4 4 3 4 6 7 7 7 8 7 7 8 7 6 5
19 19 19 19 19 19 18 16 15 15 15 14 13 12 12 12 11 11 10 10 10 10 11 12 12 12 12 12 12 11 10 11 11 11 12 10 8 7 7 6 4 5 5 4 3 3 4 6 10 13 20 23 20 23 25 22 19 16 13 13 13 12 10 10 9 8 6 4 3 3 3 2 2 1 1 3 6 6 6 6 6 6 6 5 4
19 20 19 19 19 19 18 16 16 15 15 14 13 13 13 13 12 11 10 10 10 10 10 10 11 13 13 13 13 12 11 11 11 12 11 10 10 9 8 7 5 5 5 4 3 3 4 6 9 12 19 25 21 21 24 23 20 16 13 13 14 13 11 10 8 8 6 5 3 2 2 2 1 1 2 1 3 5 4 5 5 5 5 5 4
19 19 18 18 18 18 17 16 16 15 15 14 14 14 14 13 12 11 11 11 10 10 10 11 12 13 14 13 13 12 11 11 12 12 11 10 11 10 9 8 6 6 6 5 4 3 3 5 9 11 17 25 23 19 22 23 21 17 13 13 14 13 12 10 9 7 6 5 4 2 1 1 1 1 1 1 2 4 4 4 5 4 4 4 4
17 17 17 17 17 16 15 15 14 14 15 15 16 15 15 14 13 12 11 12 11 11 11 12 13 14 14 13 13 12 12 12 13 12 11 10 11 11 10 9 8 8 7 6 4 3 3 4 8 11 16 24 24 19 20 22 22 18 14 14 14 14 12 11 10 8 6 5 4 3 2 1 1 2 1 1 2 3 4 5 5 5 5 5 5
17 16 16 16 16 15 14 14 13 13 14 15 16 16 16 16 15 13 13 13 12 12 12 13 14 15 15 14 13 12 12 13 13 13 11 11 11 11 11 10 9 9 8 6 4 3 3 3 6 11 15 22 24 20 18 20 22 20 16 15 15 14 12 12 10 9 8 6 4 3 2 2 1 1 1 2 3 3 4 5 6 6 6 7 7
17 16 16 16 15 14 13 13 12 12 12 13 14 16 17 16 16 15 14 15 15 15 14 13 14 16 16 14 14 13 13 13 12 12 11 11 12 12 12 12 11 10 8 6 5 3 3 4 6 11 15 19 22 20 18 19 21 21 18 15 15 14 13 12 11 9 8 6 5 4 3 3 2 1 1 1 3 4 4 5 6 7 7 7 7
17 16 16 15 14 13 12 12 12 13 12 12 13 14 15 15 16 16 16 17 17 17 16 14 13 14 15 15 14 13 12 12 12 12 11 12 11 12 13 13 12 11 9 8 6 3 2 3 6 12 16 19 20 19 19 19 21 22 19 16 15 15 14 12 11 10 8 6 5 5 4 4 3 3 3 3 3 4 5 6 7 8 8 8 8
15 15 16 15 14 13 12 12 11 12 12 13 12 12 13 13 14 15 16 18 19 18 17 16 13 12 14 15 14 13 12 12 12 11 11 11 11 11 13 13 13 12 10 9 8 5 3 3 7 15 17 18 18 18 18 19 21 22 21 18 15 15 14 13 11 10 9 7 6 5 5 5 5 5 5 5 4 5 5 6 7 8 8 9 9
14 14 13 14 14 13 13 12 12 12 12 13 14 13 12 12 13 13 14 17 19 19 18 17 14 12 13 14 14 13 12 11 11 11 11 12 11 12 13 13 13 13 12 11 9 8 7 6 9 17 18 17 17 16 16 18 21 24 23 19 17 15 14 13 11 10 10 10 8 7 6 6 7 6 6 6 6 6 6 6 7 8 9 9 10
14 13 12 12 12 12 12 13 13 13 13 14 15 14 13 12 13 12 13 15 17 19 19 19 17 14 14 14 14 13 12 11 10 10 11 12 12 14 15 15 14 13 13 11 11 11 11 10 11 17 17 15 16 16 15 15 18 22 23 20 17 15 14 13 12 11 11 12 11 9 7 7 7 7 7 6 6 7 7 6 7 8 9 10 10
15 13 12 12 11 12 12 12 12 13 13 14 14 14 13 13 13 13 13 14 17 18 20 20 18 16 15 14 14 14 13 13 11 11 12 12 13 14 15 16 14 14 14 13 13 13 14 14 13 16 16 14 14 14 13 14 15 18 20 19 17 15 14 14 12 11 11 10 9 8 8 8 8 8 8 7 7 7 8 7 7 8 9 10 11
14 12 12 12 12 12 11 11 12 13 13 14 14 13 12 11 11 12 13 14 16 17 17 19 19 17 16 14 14 14 14 14 13 13 14 14 13 13 14 14 14 15 16 15 15 15 16 17 16 16 16 15 13 12 12 13 15 16 18 18 18 16 15 15 13 11 10 8 7 6 6 7 8 9 9 9 8 8 9 9 8 8 9 10 11
13 11 11 12 13 13 12 12 13 13 13 13 13 12 11 10 9 10 12 13 14 13 12 14 17 18 17 15 14 14 14 15 15 15 16 16 15 13 12 12 13 15 14 15 16 16 18 19 18 17 16 15 14 12 12 12 14 15 16 17 18 18 17 16 14 12 11 9 7 6 6 6 7 8 9 10 10 9 10 10 10 10 10 11 11
12 11 11 12 13 13 13 13 13 13 13 12 12 11 10 9 8 8 9 11 11 11 9 10 13 15 16 15 14 14 15 16 17 17 18 18 15 13 12 12 13 14 12 14 17 17 19 21 20 19 17 16 15 13 12 12 12 14 16 15 17 19 18 17 14 13 13 11 10 9 8 7 7 8 9 10 10 10 11 11 12 12 11 11 12
12 11 10 11 11 12 13 12 12 13 13 12 11 11 10 9 8 7 8 9 9 10 9 8 9 10 12 12 12 13 15 16 16 17 17 16 14 12 13 14 12 11 9 11 16 17 19 21 22 20 18 18 17 15 14 12 11 13 15 14 14 16 17 16 13 13 13 13 12 11 10 9 9 9 10 10 11 11 11 11 12 12 11 11 12
12 11 10 10 10 11 11 11 11 12 13 12 11 10 10 9 9 9 9 9 8 9 9 8 8 8 9 10 10 12 14 15 15 15 14 13 14 13 13 13 11 10 10 11 15 17 17 19 22 21 20 20 19 18 16 13 11 13 17 15 13 14 15 15 15 15 14 14 13 13 12 12 12 12 11 11 11 11 11 12 12 12 12 11 11
12 11 10 10 8 9 9 10 11 12 13 13 12 11 9 9 9 9 10 10 10 9 9 9 9 9 9 9 10 11 12 13 13 14 12 12 13 13 13 12 12 13 13 12 14 15 15 16 18 19 20 22 21 20 18 14 12 14 18 17 16 15 14 15 17 18 17 16 15 15 14 14 15 15 14 13 12 12 12 13 13 13 13 12 12
13 12 11 9 8 8 9 10 11 12 13 14 13 12 11 11 11 11 10 10 10 10 10 10 10 10 10 10 11 10 11 10 10 12 12 13 12 11 11 9 11 15 15 13 13 12 13 14 16 16 18 20 21 20 17 14 13 14 17 18 18 16 15 15 18 19 19 17 16 16 15 15 16 17 17 15 14 14 14 14 14 14 14 13 13
15 13 12 10 10 10 11 12 13 13 13 13 12 11 11 12 12 11 10 10 11 10 10 10 10 10 11 11 11 11 11 10 10 10 10 12 12 12 10 8 11 15 15 14 13 12 13 14 15 17 18 18 21 21 17 16 15 13 15 19 20 18 16 16 17 19 20 18 18 17 17 16 16 16 17 17 16 16 16 15 15 15 15 15 14
17 15 14 12 12 13 13 13 14 14 14 13 11 11 10 10 10 8 8 8 9 9 8 8 9 10 11 11 11 12 13 13 13 13 12 12 12 13 11 10 12 12 12 13 13 13 14 14 15 17 19 19 20 21 19 18 17 15 14 17 19 19 18 17 16 18 20 19 18 18 18 18 18 17 17 17 18 18 18 17 17 17 16 16 15
18 17 16 14 13 14 14 14 15 15 13 11 11 11 9 9 9 8 6 6 5 4 4 4 6 7 9 11 13 14 15 15 14 14 14 13 12 11 10 10 10 8 8 11 12 14 15 16 16 16 17 18 18 19 19 18 17 16 16 16 16 17 17 18 17 19 21 21 20 19 19 20 20 20 19 19 19 19 19 19 19 18 17 17 17
21 20 18 15 15 15 14 15 15 14 13 11 11 10 10 9 9 8 7 6 5 3 2 2 0 2 4 7 9 10 11 12 12 12 12 13 12 11 10 9 9 7 6 8 9 11 13 16 16 15 16 17 17 18 18 18 16 15 16 16 16 16 16 17 18 19 20 21 21 21 21 22 22 22 21 21 21 22 22 21 20 20 19 19 18
22 21 19 18 17 16 16 16 15 14 13 13 11 10 11 10 8 6 6 6 6 5 5 5 5 4 3 2 2 4 5 6 8 8 8 9 9 9 9 8 8 7 6 6 7 7 9 10 10 12 15 13 14 16 16 18 16 14 14 15 15 15 15 16 17 19 19 19 21 22 23 23 23 23 23 24 24 24 24 23 23 22 22 20 20
25 23 22 21 19 17 17 17 15 14 14 14 13 11 11 10 8 6 5 5 5 5 7 7 8 8 8 8 7 6 4 3 4 6 6 7 7 7 6 7 7 7 7 7 7 7 6 6 6 7 9 7 9 11 8 12 16 13 11 11 11 11 12 13 15 18 19 19 21 22 22 22 22 23 24 24 25 25 25 25 24 24 23 22 21
28 27 25 23 20 18 18 17 16 15 15 15 15 13 12 10 9 7 5 6 6 4 6 7 8 9 10 10 10 10 9 7 4 2 3 5 6 6 5 5 5 6 6 6 7 7 5 5 5 5 6 6 7 8 5 5 9 8 7 8 8 8 9 10 13 15 17 19 20 22 22 21 21 22 23 23 24 25 26 26 26 25 24 24 23
31 29 26 23 21 20 20 19 17 16 16 16 15 13 11 10 8 7 5 6 7 5 5 6 7 8 9 10 10 10 11 11 9 7 4 1 2 5 5 5 5 5 5 5 6 6 5 6 6 6 6 6 5 7 7 7 6 5 6 7 8 8 10 10 12 14 14 16 18 20 22 23 23 23 23 24 24 24 25 26 27 26 26 26 25
33 30 27 24 22 22 22 21 19 17 16 16 16 14 12 10 8 6 5 5 7 5 4 5 6 7 7 8 9 9 10 11 12 11 10 8 6 3 0 2 4 4 5 6 6 7 7 8 8 8 7 7 7 7 8 9 8 7 7 7 8 10 11 10 11 13 14 15 16 16 19 22 24 25 26 26 26 26 26 26 27 28 28 28 27
34 32 29 26 25 24 23 22 20 18 16 16 16 15 13 11 9 7 6 6 6 5 4 4 4 5 5 6 7 7 8 9 10 11 11 10 10 9 7 5 3 1 1 3 5 7 8 9 10 11 11 11 11 10 9 10 10 10 9 9 9 10 10 10 10 12 13 16 18 16 16 18 19 20 22 23 25 27 28 28 27 28 28 29 29
35 34 31 28 26 26 25 24 22 19 17 16 17 16 13 11 10 9 8 7 7 7 5 3 3 3 3 4 4 5 6 7 8 9 10 10 9 8 8 7 6 5 4 2 0 2 4 7 9 11 13 14 15 14 13 13 12 12 12 11 12 12 12 12 12 13 13 15 20 20 19 19 20 20 19 19 21 23 25 28 29 29 29 29 29
36 35 33 29 28 28 28 26 24 21 19 18 17 17 15 14 12 11 10 9 9 8 6 4 4 3 2 2 2 3 4 5 6 7 7 7 7 7 7 6 5 5 4 3 3 2 2 4 6 8 10 13 15 16 16 16 16 15 14 14 14 14 15 14 13 14 13 14 18 20 21 21 23 25 23 21 21 22 22 23 25 28 30 30 29
37 37 35 31 29 30 30 28 26 24 22 20 19 18 17 16 14 13 12 10 9 8 6 5 5 4 4 3 2 2 2 3 4 5 5 5 5 5 5 5 5 4 4 4 4 5 5 5 6 7 8 11 13 15 17 18 19 18 17 16 16 15 15 14 14 15 14 15 18 20 21 21 23 25 24 22 22 24 25 24 23 24 26 27 29
Wind_Direction
166 163 161 158 160 164 167 167 166 167 164 160 157 154 151 148 145 138 135 134 132 129 124 116 111 107 102 107 118 126 129 132 134 135 134 132 128 125 122 120 119 115 113 112 113 115 116 117 117 119 121 127 131 127 123 115 101 101 106 107 101 96 100 107 113 126 134 128 124 121 118 117 117 117 115 113 111 108 105 101 99 97 93 88 84
163 160 159 157 158 162 166 168 168 168 165 160 155 153 151 149 146 140 138 135 133 129 125 119 114 111 107 111 124 128 128 131 132 134 134 134 131 127 123 119 114 109 107 102 104 110 115 118 120 127 132 140 141 138 134 125 118 113 119 117 106 100 101 105 114 131 141 133 127 126 124 122 121 121 120 118 115 112 108 104 101 100 96 91 87
161 158 157 154 155 161 165 168 169 169 166 161 155 154 151 151 148 143 141 137 134 129 125 120 117 115 113 116 128 133 131 133 135 138 136 135 134 129 122 116 110 104 97 90 92 98 105 112 120 132 138 144 143 141 137 131 126 120 126 121 108 103 101 104 117 136 147 136 129 130 129 127 126 124 123 122 120 115 110 106 104 101 97 92 87
163 156 155 152 153 159 164 167 170 170 168 163 157 155 153 153 151 147 144 141 135 130 127 123 121 118 118 119 127 137 138 138 138 139 136 133 131 126 120 115 110 105 95 88 88 92 97 104 117 135 141 142 141 139 136 134 130 125 130 123 110 104 103 106 120 137 144 136 131 132 132 130 128 126 125 124 121 117 113 109 107 104 98 92 87
164 156 154 151 153 157 162 166 169 171 169 166 161 157 156 157 154 151 149 146 139 133 130 127 125 122 120 122 126 137 143 146 141 137 136 135 133 130 124 119 113 107 98 92 94 98 98 102 117 136 142 140 138 137 135 135 131 127 129 120 110 107 106 107 120 133 133 130 130 130 130 129 130 128 124 124 123 120 116 112 108 104 99 93 86
164 155 153 151 153 155 159 166 170 170 170 168 165 161 159 161 158 154 153 150 145 139 135 131 129 126 123 123 127 134 142 147 144 139 140 141 139 135 129 124 116 108 100 95 100 104 101 102 117 138 141 138 135 134 134 136 131 127 128 121 113 110 111 114 121 128 127 127 128 127 127 127 131 130 126 126 124 122 118 113 109 104 99 93 86
163 156 154 154 155 155 158 166 171 170 170 169 167 165 163 165 164 159 157 155 151 146 140 136 134 132 128 126 128 132 140 144 145 145 147 147 141 138 137 133 120 110 102 98 104 109 104 103 118 141 141 135 132 131 133 136 134 131 133 128 120 115 116 120 123 126 127 126 124 124 124 123 127 132 132 130 125 124 120 115 110 105 99 93 86
163 160 159 158 157 156 158 165 172 171 170 170 169 168 166 169 170 166 163 161 157 153 147 144 140 137 135 133 131 131 138 144 148 151 151 149 142 145 145 138 125 115 107 101 106 112 109 105 119 142 141 134 132 132 134 136 136 135 138 137 128 121 120 122 125 127 128 127 124 125 125 124 127 131 132 130 127 126 122 118 113 107 101 94 85
165 166 164 162 159 156 158 165 171 170 169 170 171 171 170 171 174 173 170 168 164 160 155 152 149 144 140 138 138 136 137 142 150 154 148 144 144 147 140 136 130 120 112 105 106 113 114 109 120 140 138 134 133 133 134 136 136 135 140 144 136 126 124 124 124 126 128 127 125 124 123 124 126 127 129 128 126 124 122 119 114 108 101 93 84
169 169 169 166 159 156 157 164 169 168 168 170 173 173 173 173 177 179 177 176 171 167 162 159 157 151 146 143 143 143 143 143 150 156 148 145 147 139 134 141 133 118 114 109 109 115 117 115 123 139 137 133 132 131 132 133 135 135 138 144 143 132 126 125 124 125 127 125 123 124 121 122 128 131 132 128 124 124 124 120 115 107 98 91 84
174 172 171 168 161 157 157 162 169 167 167 170 173 174 175 176 179 182 182 182 180 174 168 165 163 156 152 150 149 150 152 151 153 158 154 151 149 142 146 152 135 119 116 114 115 121 122 120 128 142 140 135 132 131 131 131 133 135 137 145 149 138 126 123 123 124 125 122 121 124 125 124 129 133 134 130 128 127 124 119 113 105 96 91 88
176 175 172 170 164 160 160 163 168 168 168 169 172 173 175 178 180 184 185 186 185 181 176 171 168 163 160 160 160 158 160 162 161 161 160 155 150 152 154 154 152 143 123 121 125 129 131 128 133 147 147 142 139 135 133 132 132 135 143 148 147 137 125 119 120 122 122 122 121 124 128 127 129 132 135 136 133 131 127 125 117 106 97 95 93
176 178 174 171 166 164 164 162 167 169 170 171 171 172 172 174 179 183 186 189 188 186 183 178 173 172 170 172 172 166 164 168 170 169 168 167 162 162 157 155 165 173 156 141 140 142 145 137 139 153 158 153 148 143 137 134 135 141 153 147 137 136 130 122 119 120 122 122 122 123 129 130 131 134 138 140 138 136 134 130 121 109 103 102 100
176 179 176 172 169 168 167 164 167 168 170 172 171 172 172 172 177 183 188 189 190 189 187 184 180 177 177 182 182 173 169 171 176 175 174 174 169 167 165 165 170 182 187 173 163 159 163 152 145 156 168 167 161 152 144 140 142 152 159 147 138 141 140 131 122 121 123 124 123 124 131 136 138 142 144 144 144 143 142 135 125 118 118 117 106
179 178 177 175 172 171 169 166 168 168 170 173 173 174 174 173 176 183 188 190 191 192 191 189 185 182 184 188 187 179 179 178 179 178 175 174 172 172 171 172 179 186 193 187 177 170 179 172 153 158 169 177 174 162 152 147 150 160 165 156 148 145 148 143 129 124 124 124 126 126 134 145 148 151 153 150 149 151 148 140 134 136 139 135 118
182 178 179 177 175 175 172 167 169 172 173 174 175 176 177 175 176 181 187 191 194 195 196 194 189 189 192 191 191 189 190 185 179 178 177 176 175 174 171 176 185 184 187 186 182 180 186 184 163 160 167 179 183 171 158 154 157 166 170 168 159 151 153 152 136 128 124 124 128 129 137 152 157 155 158 158 155 158 157 148 146 152 157 153 135
185 181 181 179 178 178 175 171 171 175 177 177 177 178 179 177 178 182 184 190 194 197 198 197 195 197 199 196 197 196 196 192 181 179 180 181 177 172 171 181 187 186 190 189 184 189 191 187 171 164 167 177 184 174 164 162 164 167 173 177 170 159 155 151 144 133 123 123 124 127 136 157 167 163 164 164 161 165 164 157 154 159 166 163 147
184 183 183 181 180 181 179 177 176 179 181 181 182 182 184 182 183 186 186 189 192 195 199 200 200 203 206 203 203 201 199 198 188 184 185 184 181 177 179 189 193 188 191 194 199 205 197 190 178 168 168 175 181 175 168 168 170 170 174 182 180 169 159 150 148 140 125 120 119 122 126 148 170 173 172 170 170 171 166 162 160 163 172 167 150
176 182 183 182 182 182 182 183 184 184 185 185 186 187 189 190 190 190 189 193 195 197 201 203 203 206 212 208 205 205 202 199 194 189 189 190 187 184 188 197 198 188 188 193 210 229 209 194 184 172 170 176 180 176 171 171 175 176 178 186 188 182 168 153 151 153 134 115 113 117 112 124 158 174 180 182 180 174 167 167 167 168 172 164 150
166 177 180 182 184 185 186 187 189 189 190 190 190 190 192 196 196 196 194 197 201 203 204 207 210 212 215 211 206 206 200 195 195 191 191 194 192 190 197 203 198 192 193 192 198 225 222 201 189 178 173 176 181 179 174 174 180 181 183 189 192 191 179 162 153 155 144 120 114 112 102 101 127 161 181 194 195 183 177 176 172 172 169 160 155
160 170 177 184 186 188 190 192 194 194 195 195 195 196 197 200 202 204 202 203 206 207 209 213 216 215 212 209 207 208 203 197 195 193 195 199 201 201 203 205 200 203 205 196 203 212 220 208 194 183 176 176 181 183 179 179 184 184 184 189 192 194 186 173 159 153 152 143 138 124 103 85 91 104 136 198 204 196 192 192 184 180 172 165 167
157 165 174 182 186 190 193 198 200 200 201 200 201 202 204 206 205 208 209 209 208 208 212 212 214 212 206 207 209 210 207 202 198 196 198 205 208 208 206 206 205 216 220 211 223 227 223 211 197 186 178 177 181 187 184 183 188 185 184 186 188 191 185 180 168 157 158 162 166 147 120 84 86 100 73 146 205 206 206 213 210 202 193 183 188
161 164 170 175 182 189 193 200 203 207 209 208 208 208 210 213 211 212 215 215 212 212 211 209 211 211 207 207 212 210 207 203 202 200 204 214 213 210 209 204 204 215 225 225 235 254 240 211 195 187 179 179 181 187 187 188 192 187 182 182 184 188 183 181 180 171 165 165 169 168 148 115 118 130 101 119 208 216 220 227 225 226 228 219 219
165 165 167 169 174 182 189 196 203 210 214 214 215 215 215 219 220 217 221 223 220 219 215 210 211 213 211 212 214 209 206 204 204 205 211 219 216 213 211 205 207 211 220 228 235 262 260 219 195 186 180 180 181 186 190 190 195 191 182 180 183 188 185 184 187 186 180 172 169 177 186 172 167 157 138 179 209 219 229 236 233 232 238 241 243
169 169 168 169 169 175 183 190 198 204 211 216 217 221 221 223 226 222 225 229 228 228 225 219 216 217 217 216 215 209 207 206 208 211 215 220 217 216 213 210 213 212 214 223 230 251 264 246 205 188 179 180 181 185 191 192 197 196 186 180 184 190 190 189 191 190 188 186 188 195 215 232 203 180 172 198 204 216 233 241 239 241 244 248 252
173 174 171 170 171 176 182 186 190 194 201 207 212 222 225 228 231 229 229 231 232 233 234 232 225 223 223 219 216 211 208 208 210 215 218 219 217 216 215 215 217 215 213 214 220 238 265 263 214 184 175 177 181 184 190 193 197 198 189 181 184 191 192 191 192 191 189 191 206 223 243 257 258 255 272 243 220 218 233 244 243 245 251 255 258
175 177 175 174 176 182 187 189 191 193 196 197 204 216 222 228 231 230 230 231 234 235 237 237 232 227 224 218 217 213 209 209 210 215 219 220 220 219 220 220 220 218 214 209 205 208 243 254 195 176 173 174 177 182 189 193 197 199 193 184 183 190 193 192 192 197 200 198 212 231 253 271 284 293 302 299 263 238 240 248 250 250 254 263 268
176 176 177 179 184 191 197 203 203 203 203 203 206 210 215 221 226 227 226 229 233 236 239 240 238 230 221 215 216 215 212 214 215 219 223 225 225 226 227 224 223 219 214 207 197 188 186 192 173 172 171 167 165 171 180 189 195 199 198 191 185 190 195 197 199 208 218 222 229 239 259 278 284 290 299 301 289 266 254 253 259 257 254 261 268
185 182 185 187 190 199 206 214 219 221 219 216 217 216 216 215 220 225 225 229 231 235 239 240 240 231 223 218 218 219 218 222 225 227 228 229 229 233 237 231 224 218 213 209 198 184 169 154 158 169 168 159 156 157 166 180 191 197 201 200 196 196 201 206 211 220 233 240 243 247 259 277 284 289 295 297 297 284 272 265 265 264 259 259 260
188 194 201 202 203 209 215 220 224 232 232 228 226 224 224 221 222 223 223 229 230 232 235 238 238 232 229 223 223 227 227 229 232 236 237 238 236 236 242 239 228 217 214 212 202 186 170 158 154 165 169 162 155 153 156 167 182 193 200 203 203 206 212 218 223 230 242 248 250 252 259 274 284 290 295 296 298 292 286 279 272 271 267 265 262
189 199 207 215 219 221 227 228 228 234 236 235 232 229 231 229 229 225 222 226 229 230 232 235 235 232 234 229 229 233 236 240 240 243 246 249 246 240 242 242 234 221 214 211 205 194 179 172 167 167 173 171 163 163 164 164 170 183 192 197 201 208 217 222 225 228 236 244 248 256 262 272 282 289 295 295 298 296 291 288 284 280 276 275 271
196 205 213 221 223 226 232 234 237 240 238 238 236 235 235 232 232 227 224 227 233 237 236 235 232 230 235 235 238 242 246 250 249 252 255 256 252 245 243 241 237 231 221 212 207 201 189 184 182 178 180 183 183 186 187 182 176 176 185 194 200 207 214 216 217 217 222 230 241 256 264 274 284 287 290 292 296 296 294 294 293 290 287 286 282
203 209 220 223 223 228 232 238 244 243 239 237 237 237 237 236 233 228 228 233 239 243 238 231 229 230 234 235 242 247 252 253 253 256 258 256 248 242 242 237 237 239 231 218 211 204 198 195 192 191 190 192 196 202 205 199 189 186 187 192 199 206 212 213 213 217 220 225 233 246 260 275 286 287 287 289 295 297 297 298 300 301 298 296 292
212 218 226 227 228 231 234 241 244 240 235 232 234 236 238 239 236 230 230 234 240 244 234 220 224 233 236 234 238 246 253 254 255 256 254 251 244 237 236 234 241 250 245 229 218 206 201 201 199 201 203 200 201 207 212 210 206 205 198 192 197 205 212 214 216 226 230 228 231 241 253 267 277 285 290 291 297 300 302 303 305 308 308 305 301
219 223 226 226 228 231 235 238 236 234 230 228 231 233 238 242 240 237 231 230 233 242 241 224 220 231 241 239 238 244 250 252 254 253 252 253 251 244 237 234 240 250 249 240 231 218 206 203 202 206 211 208 206 210 214 216 223 221 206 195 197 203 211 218 223 233 236 232 232 241 249 258 264 274 288 294 299 302 307 311 310 312 315 313 309
214 216 218 217 220 227 232 231 226 225 225 229 231 230 236 238 239 239 236 233 227 230 236 231 223 223 233 237 235 239 243 246 250 250 251 257 256 251 247 240 238 244 243 238 235 228 215 209 208 211 217 217 214 216 217 214 222 223 211 203 202 205 211 220 228 233 235 235 237 242 248 256 260 266 277 288 296 300 306 311 312 313 317 319 319
206 211 211 210 216 219 222 220 215 218 223 228 230 228 228 231 236 235 235 236 231 229 231 232 230 227 232 238 239 241 244 247 251 253 253 253 252 249 252 247 235 240 241 233 232 230 223 220 217 217 223 224 221 221 218 213 216 221 218 213 211 213 217 224 232 235 236 238 241 243 248 255 260 262 266 276 287 293 299 304 307 310 312 317 322
201 206 206 204 207 208 208 205 202 208 217 223 226 226 226 229 228 223 226 231 233 234 235 235 234 234 240 246 251 252 254 257 259 261 255 248 248 251 258 251 230 233 236 235 234 232 230 231 230 228 229 228 228 228 222 217 218 224 226 222 219 220 224 231 236 236 238 241 244 246 249 254 259 260 261 268 279 284 288 293 298 302 305 312 317
198 199 200 197 197 200 200 197 196 199 204 212 215 213 216 219 215 212 217 225 233 235 233 234 233 237 243 249 258 262 265 270 270 273 264 249 246 252 263 259 237 232 232 236 240 238 236 236 237 238 236 232 234 236 235 230 223 223 228 224 223 224 226 234 239 236 238 243 247 249 252 254 256 256 257 262 271 278 281 283 286 293 298 304 309
198 198 197 198 197 195 194 192 194 197 197 197 194 191 192 194 193 194 201 211 223 228 230 235 237 244 251 256 262 266 269 272 273 277 276 264 250 249 253 246 240 232 224 233 242 240 241 241 240 243 243 243 243 242 243 240 229 222 225 223 225 228 230 238 242 239 239 244 249 253 255 256 256 256 255 256 263 270 274 275 277 284 291 296 301
200 200 200 201 199 195 192 188 188 193 193 187 184 184 176 169 169 163 160 173 187 209 222 234 247 254 259 262 263 265 269 270 272 273 272 271 262 251 247 241 244 238 221 230 239 239 242 243 242 244 245 249 252 247 246 250 247 238 229 226 230 231 236 243 243 239 239 244 249 253 256 257 258 259 260 257 257 263 267 270 272 276 283 289 292
201 201 201 202 199 195 192 188 186 187 186 185 185 180 166 153 153 147 139 144 144 138 130 118 194 269 266 267 266 267 267 265 266 267 263 265 265 258 253 247 249 249 236 239 246 245 245 242 239 240 243 248 251 247 246 250 257 254 238 234 238 235 238 243 245 243 241 244 247 250 254 257 260 261 264 263 261 262 264 266 269 272 278 282 285
206 203 202 202 199 194 191 190 188 183 179 186 190 177 160 144 137 141 140 139 132 118 106 92 80 66 47 23 331 299 282 265 258 258 255 256 261 261 259 258 256 255 251 256 264 261 254 249 243 239 240 250 252 246 248 244 247 258 251 247 250 249 248 247 246 245 242 245 245 246 250 254 260 262 264 265 266 266 265 265 267 270 275 278 282
211 207 203 202 199 195 195 192 188 182 179 184 185 170 158 146 143 155 154 148 139 115 102 89 80 73 64 59 49 34 17 327 269 257 253 251 256 257 255 258 260 261 261 263 270 274 271 265 267 253 246 262 259 250 261 248 242 251 255 260 263 258 258 256 252 246 242 246 247 246 247 251 258 261 263 265 267 270 269 266 265 268 272 274 278
215 211 206 204 201 199 198 193 189 184 181 184 182 171 161 157 161 170 170 165 162 134 104 91 79 74 67 61 56 52 48 41 24 322 268 253 253 254 251 251 254 262 265 268 274 280 287 276 276 281 274 282 265 255 284 265 242 245 253 272 278 259 255 260 264 259 247 247 249 247 247 250 256 260 265 267 269 271 271 269 267 267 270 272 275
219 214 210 207 204 203 200 193 192 189 185 185 184 178 169 162 167 172 166 164 168 161 123 102 86 78 70 64 62 59 59 60 57 54 47 16 259 253 252 249 248 254 262 270 277 277 283 279 277 287 291 297 283 266 275 272 262 267 268 276 281 274 275 277 280 279 262 248 245 244 245 248 253 259 265 269 270 271 272 271 270 270 271 272 274
221 216 211 210 205 203 201 195 195 195 191 190 189 187 180 172 176 184 177 169 174 176 145 114 99 84 76 72 70 66 66 69 69 67 63 60 61 59 18 247 249 248 252 258 264 268 270 271 272 276 279 284 283 277 276 275 273 275 274 273 271 271 279 285 291 296 289 267 250 241 241 246 251 257 262 265 268 270 271 272 271 271 271 273 275
221 217 212 210 206 203 203 200 199 199 197 197 195 194 191 185 185 198 202 192 187 192 180 141 119 100 87 80 74 69 68 73 76 76 72 68 66 65 69 74 81 112 220 242 250 258 263 265 266 267 270 273 275 276 277 278 274 271 269 268 268 268 272 280 285 291 297 289 276 261 247 244 249 256 261 263 264 265 267 269 270 270 270 272 274
221 220 216 211 208 205 205 203 202 202 203 205 204 200 200 197 197 207 214 207 203 209 208 178 149 141 117 94 85 73 67 74 80 82 81 77 73 69 68 70 72 76 77 78 52 267 263 265 263 261 263 264 267 269 270 272 272 272 272 268 266 267 268 272 276 279 287 293 290 282 269 259 254 253 258 263 265 266 266 266 267 268 268 270 271
220 221 218 213 209 207 206 207 207 206 206 209 210 207 205 204 207 214 219 217 216 220 221 210 197 195 184 153 124 97 79 80 83 87 89 85 81 76 68 63 60 58 58 55 38 4 324 289 274 265 260 258 260 262 262 263 265 268 272 272 270 269 270 272 277 281 286 292 292 290 287 280 272 263 258 259 261 262 263 263 264 265 266 267 268
219 219 218 215 212 210 209 211 212 211 210 211 212 211 210 210 212 217 223 224 225 230 231 224 220 220 219 220 206 162 113 89 85 90 93 91 85 77 68 61 51 45 38 24 11 357 346 334 314 293 274 263 258 257 257 258 259 261 264 267 269 270 271 272 275 278 282 288 290 290 289 288 286 278 268 264 263 260 259 259 260 263 265 268 268
Height
1514 1515 1516 1516 1517 1518 1520 1520 1521 1522 1522 1523 1524 1524 1525 1525 1526 1526 1527 1527 1527 1528 1528 1529 1529 1529 1530 1530 1531 1531 1531 1532 1532 1533 1533 1533 1534 1534 1534 1535 1535 1535 1536 1536 1536 1536 1537 1537 1537 1538 1538 1538 1539 1539 1540 1541 1541 1542 1542 1542 1542 1542 1543 1544 1545 1545 1545 1545 1545 1546 1546 1547 1548 1548 1548 1549 1549 1549 1549 1549 1549 1550 1549 1549 1549
1513 1514 1515 1516 1517 1518 1519 1520 1521 1522 1523 1523 1524 1525 1525 1526 1527 1527 1528 1528 1528 1529 1529 1530 1530 1531 1531 1532 1532 1532 1533 1533 1534 1534 1534 1535 1535 1535 1535 1536 1536 1536 1536 1537 1537 1537 1537 1537 1537 1537 1538 1538 1539 1540 1540 1541 1541 1542 1543 1542 1542 1543 1544 1545 1546 1546 1546 1546 1546 1547 1548 1548 1549 1549 1550 1550 1550 1551 1551 1551 1551 1551 1551 1551 1551
1513 1514 1515 1516 1516 1518 1519 1520 1521 1522 1523 1524 1525 1525 1526 1527 1527 1528 1528 1529 1529 1530 1530 1531 1532 1532 1532 1533 1533 1534 1534 1534 1535 1535 1536 1536 1536 1536 1536 1537 1537 1537 1537 1537 1537 1537 1537 1537 1537 1537 1538 1538 1539 1540 1540 1541 1542 1542 1543 1543 1542 1543 1544 1546 1546 1547 1547 1547 1548 1548 1549 1549 1550 1551 1551 1551 1552 1552 1552 1552 1552 1552 1552 1552 1552
1513 1514 1515 1516 1516 1518 1519 1520 1521 1522 1523 1524 1525 1526 1526 1527 1528 1529 1529 1530 1530 1531 1531 1532 1533 1533 1533 1534 1534 1535 1535 1536 1536 1536 1537 1537 1537 1537 1537 1537 1538 1538 1538 1538 1538 1538 1538 1538 1538 1537 1538 1538 1539 1540 1540 1541 1542 1543 1544 1544 1543 1543 1545 1546 1547 1548 1548 1549 1549 1549 1550 1551 1552 1552 1552 1553 1553 1553 1553 1553 1553 1554 1554 1554 1554
1513 1514 1515 1515 1516 1518 1519 1520 1521 1522 1523 1524 1525 1526 1527 1527 1529 1529 1530 1531 1531 1532 1532 1533 1533 1534 1534 1535 1535 1536 1536 1537 1537 1537 1538 1538 1538 1538 1538 1538 1538 1538 1539 1538 1538 1538 1538 1538 1538 1538 1538 1538 1539 1540 1541 1542 1542 1543 1544 1544 1544 1544 1546 1547 1548 1548 1549 1550 1550 1551 1551 1552 1553 1554 1554 1554 1555 1555 1555 1555 1555 1555 1555 1555 1555
1513 1514 1515 1516 1516 1517 1519 1520 1521 1522 1523 1524 1525 1526 1527 1528 1529 1530 1531 1531 1532 1533 1533 1534 1534 1535 1535 1535 1536 1537 1537 1537 1538 1538 1538 1538 1538 1538 1538 1539 1539 1539 1539 1539 1539 1539 1539 1539 1539 1539 1539 1539 1539 1540 1541 1542 1543 1544 1545 1545 1544 1545 1546 1548 1549 1549 1550 1551 1551 1552 1553 1553 1554 1555 1555 1555 1556 1556 1556 1556 1556 1556 1556 1556 1556
1513 1514 1515 1516 1517 1518 1519 1520 1521 1522 1524 1524 1525 1526 1527 1528 1529 1530 1531 1532 1532 1533 1534 1534 1535 1535 1536 1536 1537 1537 1538 1538 1539 1539 1539 1539 1539 1539 1539 1539 1539 1540 1540 1540 1540 1540 1540 1540 1540 1540 1539 1539 1540 1540 1541 1542 1543 1544 1545 1545 1545 1545 1547 1549 1550 1550 1551 1552 1552 1553 1554 1554 1555 1556 1556 1556 1557 1557 1557 1557 1557 1557 1557 1557 1557
1514 1515 1515 1516 1517 1518 1519 1520 1521 1522 1524 1525 1526 1526 1527 1528 1529 1530 1531 1532 1533 1534 1534 1535 1536 1536 1536 1537 1537 1538 1538 1539 1539 1539 1540 1540 1540 1540 1540 1540 1540 1540 1541 1541 1541 1541 1541 1541 1541 1541 1540 1540 1540 1541 1542 1543 1544 1544 1545 1546 1546 1546 1547 1549 1550 1551 1552 1552 1553 1553 1554 1555 1556 1556 1557 1557 1557 1558 1558 1558 1558 1558 1558 1558 1558
1514 1515 1516 1516 1517 1518 1519 1520 1521 1523 1524 1525 1526 1527 1528 1529 1530 1531 1532 1533 1533 1534 1535 1536 1536 1537 1537 1538 1538 1538 1539 1539 1540 1540 1540 1541 1541 1541 1541 1541 1541 1541 1541 1541 1542 1542 1542 1542 1542 1542 1541 1541 1541 1542 1542 1543 1544 1545 1545 1547 1547 1546 1547 1549 1550 1551 1552 1553 1553 1554 1555 1556 1556 1557 1558 1558 1558 1558 1559 1559 1559 1559 1559 1559 1559
1514 1515 1516 1517 1518 1519 1520 1521 1522 1523 1524 1525 1526 1527 1528 1529 1530 1531 1532 1533 1534 1535 1535 1536 1537 1537 1538 1538 1539 1539 1539 1540 1540 1541 1541 1541 1541 1542 1542 1542 1542 1542 1542 1542 1543 1543 1543 1543 1543 1543 1543 1542 1542 1543 1543 1544 1544 1545 1546 1547 1548 1547 1547 1548 1550 1551 1552 1553 1554 1554 1555 1556 1557 1558 1558 1559 1559 1559 1559 1560 1560 1560 1560 1560 1559
1514 1515 1516 1517 1518 1519 1520 1521 1522 1523 1524 1525 1526 1527 1528 1529 1530 1531 1532 1533 1534 1535 1536 1536 1537 1537 1538 1539 1539 1540 1540 1540 1541 1541 1541 1542 1542 1542 1542 1542 1542 1543 1543 1543 1543 1544 1544 1544 1544 1545 1544 1544 1544 1544 1544 1544 1545 1545 1546 1547 1548 1549 1549 1549 1550 1551 1553 1553 1554 1555 1555 1556 1557 1558 1558 1559 1560 1560 1560 1560 1561 1560 1560 1560 1560
1514 1515 1516 1518 1519 1520 1521 1522 1523 1524 1525 1526 1527 1528 1529 1529 1530 1531 1532 1533 1534 1535 1536 1536 1537 1538 1538 1539 1539 1540 1540 1541 1541 1541 1541 1542 1542 1542 1542 1543 1543 1543 1543 1543 1544 1544 1545 1545 1545 1546 1546 1545 1545 1545 1545 1545 1545 1546 1546 1547 1549 1550 1550 1550 1551 1552 1553 1554 1555 1555 1556 1557 1558 1558 1559 1559 1560 1560 1561 1561 1561 1561 1561 1561 1561
1514 1515 1516 1517 1519 1520 1521 1522 1523 1524 1525 1526 1527 1528 1529 1530 1530 1531 1532 1533 1534 1535 1536 1537 1537 1538 1538 1539 1539 1540 1541 1541 1542 1542 1542 1542 1542 1542 1542 1543 1543 1543 1543 1543 1544 1545 1545 1545 1546 1546 1546 1546 1546 1546 1546 1546 1546 1546 1546 1547 1549 1551 1551 1551 1551 1552 1553 1554 1555 1556 1556 1557 1558 1559 1559 1560 1560 1561 1561 1562 1562 1562 1562 1562 1561
1513 1515 1516 1518 1519 1520 1521 1523 1524 1525 1526 1527 1527 1528 1529 1530 1530 1531 1532 1533 1534 1535 1536 1537 1537 1538 1539 1539 1540 1540 1541 1541 1542 1542 1542 1543 1543 1543 1543 1543 1543 1543 1543 1543 1544 1545 1546 1546 1546 1546 1547 1547 1547 1547 1547 1547 1547 1547 1547 1548 1549 1551 1552 1552 1552 1552 1553 1554 1555 1556 1557 1557 1558 1559 1559 1560 1561 1561 1562 1562 1562 1562 1562 1562 1562
1513 1515 1516 1518 1519 1520 1522 1523 1524 1525 1526 1527 1528 1528 1529 1530 1531 1531 1532 1533 1534 1535 1536 1537 1537 1538 1539 1539 1540 1540 1540 1541 1542 1542 1542 1543 1543 1543 1543 1543 1543 1543 1543 1543 1544 1544 1545 1546 1546 1546 1547 1547 1548 1548 1548 1548 1547 1547 1547 1548 1549 1550 1552 1553 1553 1553 1553 1554 1555 1556 1557 1558 1558 1559 1559 1560 1561 1561 1562 1562 1562 1563 1562 1562 1562
1514 1515 1516 1518 1519 1521 1522 1523 1524 1525 1526 1527 1528 1529 1530 1530 1531 1532 1533 1533 1534 1535 1536 1537 1537 1538 1539 1539 1540 1540 1541 1541 1541 1542 1542 1542 1543 1543 1543 1543 1543 1543 1543 1543 1544 1544 1545 1545 1546 1546 1546 1547 1548 1548 1548 1548 1548 1548 1548 1548 1549 1550 1552 1553 1554 1554 1554 1555 1555 1556 1557 1558 1558 1559 1559 1560 1560 1561 1562 1562 1562 1562 1562 1562 1562
1514 1516 1517 1518 1519 1521 1522 1523 1524 1525 1527 1527 1528 1529 1530 1531 1532 1532 1533 1534 1534 1535 1536 1537 1537 1538 1538 1539 1540 1540 1540 1541 1541 1542 1542 1542 1542 1543 1543 1543 1543 1543 1543 1543 1544 1544 1544 1545 1546 1546 1546 1547 1547 1548 1549 1549 1548 1548 1549 1549 1549 1550 1552 1553 1555 1555 1554 1555 1556 1556 1557 1558 1558 1559 1559 1559 1560 1561 1561 1562 1562 1562 1562 1562 1562
1514 1516 1517 1519 1520 1521 1522 1523 1525 1526 1527 1528 1529 1530 1530 1531 1532 1532 1533 1534 1534 1535 1536 1536 1537 1538 1538 1539 1539 1540 1540 1540 1541 1541 1542 1542 1542 1543 1543 1543 1543 1543 1543 1543 1543 1544 1544 1544 1545 1546 1546 1546 1547 1548 1549 1549 1549 1549 1549 1549 1550 1551 1552 1553 1555 1555 1555 1556 1556 1557 1557 1558 1558 1559 1559 1559 1560 1560 1561 1561 1562 1562 1562 1562 1562
1514 1516 1518 1519 1520 1522 1523 1524 1525 1526 1527 1528 1529 1530 1531 1531 1532 1532 1533 1534 1534 1535 1536 1536 1537 1537 1538 1538 1539 1539 1540 1540 1541 1541 1541 1542 1542 1543 1543 1543 1543 1543 1543 1543 1543 1544 1544 1544 1545 1545 1546 1546 1547 1548 1549 1549 1549 1549 1549 1550 1550 1551 1552 1553 1554 1556 1556 1556 1557 1557 1558 1558 1559 1559 1559 1560 1560 1560 1561 1561 1562 1562 1562 1562 1563
1515 1516 1518 1519 1521 1522 1523 1524 1525 1526 1527 1528 1529 1530 1530 1531 1532 1532 1533 1534 1534 1535 1536 1536 1537 1537 1537 1538 1538 1539 1539 1540 1540 1541 1541 1542 1542 1542 1543 1543 1543 1543 1543 1543 1543 1543 1543 1544 1544 1545 1546 1546 1547 1548 1549 1549 1549 1549 1549 1550 1550 1551 1552 1553 1554 1555 1557 1557 1558 1558 1558 1559 1559 1559 1560 1560 1561 1561 1561 1562 1562 1562 1562 1563 1563
1515 1516 1518 1519 1521 1522 1523 1524 1525 1526 1527 1528 1529 1530 1530 1531 1531 1532 1533 1533 1534 1535 1535 1536 1536 1537 1537 1537 1538 1538 1539 1539 1540 1540 1541 1541 1541 1542 1542 1543 1543 1543 1543 1543 1542 1543 1543 1543 1544 1544 1545 1546 1546 1547 1548 1549 1548 1549 1549 1550 1551 1551 1552 1553 1554 1555 1556 1557 1558 1558 1559 1559 1560 1560 1560 1560 1561 1561 1562 1562 1562 1563 1563 1563 1563
1514 1516 1517 1519 1520 1522 1523 1524 1525 1526 1527 1528 1529 1529 1530 1531 1531 1532 1533 1533 1534 1534 1535 1536 1536 1536 1536 1537 1537 1538 1538 1539 1539 1540 1540 1541 1541 1542 1542 1542 1542 1543 1543 1543 1542 1543 1543 1543 1543 1544 1545 1546 1546 1547 1548 1548 1548 1549 1550 1550 1551 1551 1553 1554 1554 1555 1556 1557 1558 1559 1559 1559 1560 1560 1560 1560 1561 1561 1562 1563 1563 1563 1563 1563 1563
1514 1515 1517 1518 1520 1522 1523 1524 1525 1526 1527 1528 1529 1529 1530 1531 1531 1532 1532 1533 1533 1534 1534 1535 1535 1536 1536 1536 1537 1537 1538 1538 1539 1539 1540 1540 1541 1541 1542 1542 1542 1542 1543 1542 1543 1543 1542 1542 1543 1543 1544 1545 1546 1546 1548 1548 1548 1549 1550 1550 1551 1551 1552 1553 1554 1555 1556 1557 1558 1558 1559 1559 1560 1560 1561 1561 1561 1561 1562 1562 1563 1563 1563 1563 1563
1514 1515 1517 1518 1520 1521 1522 1523 1525 1526 1526 1527 1528 1529 1530 1530 1531 1531 1532 1532 1533 1533 1534 1534 1535 1535 1536 1536 1536 1537 1538 1538 1538 1539 1539 1540 1540 1541 1541 1541 1541 1542 1542 1542 1542 1542 1542 1542 1542 1542 1543 1545 1546 1547 1547 1548 1548 1549 1550 1550 1551 1551 1552 1553 1554 1555 1556 1557 1557 1558 1559 1559 1560 1560 1561 1561 1561 1561 1562 1562 1562 1563 1563 1563 1563
1514 1516 1517 1518 1520 1521 1522 1523 1524 1525 1526 1527 1527 1528 1529 1529 1530 1531 1531 1532 1532 1533 1533 1534 1534 1535 1535 1535 1536 1536 1537 1538 1538 1539 1539 1539 1540 1540 1540 1540 1541 1541 1542 1542 1542 1542 1542 1541 1541 1542 1543 1544 1546 1547 1547 1548 1549 1549 1550 1551 1551 1552 1552 1553 1554 1555 1556 1556 1557 1558 1559 1559 1560 1560 1560 1561 1561 1561 1561 1562 1562 1562 1563 1563 1563
1515 1516 1517 1519 1520 1521 1522 1523 1524 1524 1525 1526 1527 1527 1528 1529 1529 1530 1531 1531 1532 1532 1532 1533 1534 1534 1535 1535 1535 1536 1536 1537 1538 1538 1538 1538 1539 1539 1539 1539 1540 1540 1541 1541 1541 1541 1541 1541 1541 1541 1542 1543 1545 1546 1547 1548 1548 1549 1550 1551 1551 1552 1552 1553 1554 1555 1555 1556 1557 1558 1558 1559 1560 1560 1560 1560 1560 1561 1561 1561 1561 1562 1562 1562 1562
1515 1516 1518 1519 1520 1521 1522 1523 1523 1524 1525 1525 1526 1527 1527 1528 1528 1529 1530 1531 1531 1531 1532 1533 1533 1534 1534 1535 1535 1535 1536 1537 1537 1537 1538 1538 1538 1538 1538 1538 1538 1539 1540 1540 1541 1541 1541 1540 1540 1541 1542 1543 1544 1546 1547 1547 1548 1549 1550 1551 1551 1552 1552 1553 1554 1555 1555 1556 1557 1557 1558 1559 1559 1560 1560 1560 1560 1560 1560 1561 1561 1561 1561 1562 1562
1515 1516 1518 1519 1520 1521 1522 1523 1523 1524 1525 1525 1526 1526 1527 1527 1527 1528 1529 1529 1530 1531 1531 1532 1533 1534 1534 1534 1535 1535 1536 1536 1536 1537 1537 1537 1537 1537 1537 1537 1537 1538 1539 1539 1540 1540 1540 1540 1540 1541 1541 1543 1544 1545 1546 1547 1548 1549 1550 1551 1552 1552 1552 1553 1554 1554 1555 1556 1556 1557 1558 1558 1559 1559 1560 1560 1560 1560 1560 1560 1560 1560 1561 1561 1562
1515 1516 1517 1519 1520 1521 1522 1523 1523 1524 1524 1525 1525 1526 1526 1527 1527 1527 1528 1529 1529 1530 1531 1532 1532 1533 1534 1534 1534 1535 1535 1535 1536 1536 1536 1537 1537 1536 1536 1535 1535 1536 1538 1539 1539 1540 1540 1540 1540 1541 1542 1543 1543 1544 1545 1546 1547 1548 1549 1551 1552 1552 1553 1553 1553 1554 1555 1555 1556 1557 1557 1558 1559 1559 1559 1559 1559 1559 1560 1560 1560 1560 1560 1560 1561
1516 1517 1517 1519 1520 1521 1522 1522 1523 1524 1524 1524 1525 1525 1525 1526 1526 1527 1528 1528 1528 1529 1530 1531 1531 1532 1533 1534 1534 1534 1534 1535 1535 1535 1535 1535 1535 1535 1534 1534 1534 1536 1537 1538 1539 1539 1539 1540 1540 1541 1542 1543 1543 1544 1545 1545 1546 1547 1549 1550 1551 1552 1553 1553 1553 1554 1554 1555 1556 1556 1557 1558 1558 1558 1559 1559 1559 1559 1559 1560 1560 1560 1560 1560 1560
1516 1517 1518 1519 1519 1520 1521 1522 1522 1523 1523 1524 1524 1524 1525 1525 1526 1527 1527 1527 1528 1528 1528 1529 1530 1531 1532 1533 1533 1533 1534 1534 1534 1534 1534 1534 1534 1533 1532 1532 1534 1535 1535 1537 1538 1539 1539 1540 1540 1541 1542 1543 1543 1543 1544 1544 1545 1546 1547 1549 1550 1551 1552 1553 1553 1554 1554 1555 1555 1556 1557 1557 1558 1558 1558 1559 1559 1559 1559 1559 1559 1560 1559 1560 1560
1516 1517 1518 1518 1519 1520 1521 1521 1522 1522 1523 1523 1524 1524 1524 1525 1526 1526 1527 1527 1527 1527 1528 1528 1529 1530 1530 1531 1532 1533 1533 1533 1533 1533 1532 1532 1532 1532 1532 1531 1532 1533 1534 1536 1537 1538 1539 1539 1540 1540 1541 1542 1542 1542 1543 1543 1544 1545 1546 1548 1549 1550 1551 1552 1552 1553 1554 1554 1554 1555 1556 1557 1557 1557 1558 1558 1558 1558 1558 1558 1559 1559 1559 1559 1559
1516 1517 1518 1518 1519 1520 1521 1521 1521 1522 1522 1523 1523 1524 1524 1525 1525 1526 1526 1527 1526 1526 1528 1528 1528 1529 1529 1530 1531 1531 1532 1532 1532 1532 1531 1531 1531 1532 1532 1532 1531 1531 1532 1535 1536 1537 1538 1539 1540 1540 1541 1541 1542 1542 1542 1543 1543 1544 1545 1547 1548 1549 1550 1551 1552 1553 1553 1553 1554 1554 1555 1556 1556 1557 1557 1557 1557 1558 1558 1558 1558 1559 1559 1559 1559
1515 1516 1517 1518 1518 1519 1520 1521 1521 1521 1522 1522 1523 1523 1524 1524 1525 1526 1526 1526 1526 1526 1527 1528 1528 1528 1528 1529 1530 1530 1531 1531 1531 1530 1529 1530 1531 1533 1532 1532 1531 1531 1532 1534 1535 1536 1537 1537 1538 1540 1541 1541 1541 1542 1542 1542 1543 1544 1545 1546 1547 1548 1549 1550 1551 1552 1553 1553 1553 1554 1554 1555 1556 1556 1556 1556 1557 1557 1557 1557 1557 1558 1558 1558 1558
1514 1515 1516 1517 1518 1518 1519 1519 1520 1521 1521 1522 1522 1523 1524 1524 1525 1525 1526 1526 1526 1526 1526 1527 1528 1528 1528 1529 1529 1529 1529 1529 1529 1528 1528 1530 1532 1533 1532 1531 1531 1531 1532 1533 1534 1535 1536 1537 1537 1539 1540 1541 1541 1541 1541 1542 1542 1543 1544 1545 1546 1547 1548 1549 1550 1551 1552 1552 1552 1553 1553 1554 1555 1555 1555 1556 1556 1556 1557 1557 1557 1557 1557 1557 1557
1513 1514 1515 1516 1517 1517 1518 1518 1519 1520 1521 1521 1522 1522 1523 1524 1524 1525 1525 1526 1526 1527 1527 1527 1528 1528 1527 1528 1528 1528 1528 1528 1528 1528 1528 1530 1531 1531 1531 1531 1532 1532 1531 1531 1532 1534 1534 1535 1537 1538 1539 1540 1541 1541 1541 1541 1541 1542 1543 1544 1545 1546 1547 1547 1548 1549 1550 1551 1551 1552 1552 1553 1554 1554 1555 1555 1555 1556 1556 1556 1556 1556 1556 1556 1556
1512 1513 1514 1515 1516 1516 1517 1517 1518 1519 1520 1521 1521 1522 1522 1523 1524 1524 1525 1525 1526 1526 1527 1527 1527 1527 1527 1528 1528 1528 1527 1527 1527 1527 1528 1529 1529 1530 1530 1532 1533 1532 1530 1530 1531 1531 1532 1533 1536 1537 1538 1538 1539 1539 1539 1540 1540 1541 1541 1542 1543 1544 1545 1546 1547 1548 1549 1550 1550 1551 1551 1552 1553 1553 1554 1554 1554 1555 1555 1555 1555 1555 1555 1555 1556
1511 1512 1514 1515 1515 1516 1516 1516 1517 1518 1519 1520 1521 1521 1522 1523 1523 1524 1524 1525 1526 1526 1527 1527 1527 1527 1527 1527 1527 1527 1527 1527 1527 1527 1528 1528 1529 1529 1530 1531 1532 1530 1530 1530 1530 1530 1531 1532 1534 1535 1536 1537 1537 1537 1538 1538 1539 1540 1540 1541 1542 1543 1544 1545 1546 1547 1548 1548 1549 1550 1550 1551 1552 1552 1553 1553 1553 1554 1554 1555 1554 1554 1554 1555 1555
1510 1511 1513 1514 1514 1515 1515 1516 1517 1518 1518 1519 1520 1521 1522 1522 1523 1523 1524 1525 1525 1525 1526 1526 1527 1527 1527 1527 1527 1527 1526 1526 1526 1526 1526 1527 1528 1528 1529 1530 1529 1528 1529 1529 1529 1530 1531 1532 1533 1534 1535 1536 1536 1537 1537 1537 1538 1539 1539 1540 1540 1542 1543 1544 1545 1546 1546 1547 1548 1548 1549 1550 1550 1551 1551 1552 1552 1552 1553 1553 1553 1553 1553 1554 1554
1509 1510 1512 1513 1514 1514 1515 1516 1517 1517 1518 1519 1519 1520 1521 1522 1523 1523 1524 1525 1525 1525 1526 1526 1526 1527 1527 1527 1526 1526 1526 1526 1526 1525 1526 1526 1527 1527 1528 1529 1527 1526 1527 1529 1529 1529 1530 1531 1532 1533 1534 1535 1536 1536 1537 1537 1536 1537 1538 1539 1540 1541 1542 1543 1543 1544 1545 1545 1546 1547 1547 1548 1549 1549 1550 1550 1551 1551 1551 1552 1552 1552 1552 1553 1553
1508 1509 1510 1512 1513 1514 1515 1516 1517 1518 1518 1519 1519 1520 1521 1522 1523 1524 1524 1524 1525 1525 1526 1526 1526 1526 1526 1526 1526 1526 1525 1525 1525 1525 1525 1525 1526 1527 1527 1527 1526 1525 1526 1528 1528 1528 1530 1530 1530 1531 1533 1535 1535 1536 1537 1536 1536 1536 1537 1538 1539 1539 1540 1541 1542 1542 1543 1544 1544 1545 1546 1546 1547 1547 1548 1548 1549 1549 1550 1550 1551 1551 1551 1552 1552
1506 1507 1509 1511 1512 1513 1515 1515 1516 1517 1519 1519 1519 1520 1521 1522 1523 1524 1524 1525 1525 1525 1526 1526 1526 1526 1526 1526 1525 1525 1525 1524 1524 1524 1524 1524 1525 1526 1526 1526 1526 1525 1526 1527 1527 1528 1528 1528 1529 1531 1532 1533 1534 1535 1536 1536 1536 1536 1537 1537 1538 1538 1539 1540 1540 1541 1542 1542 1543 1543 1544 1544 1545 1545 1546 1547 1547 1548 1548 1549 1549 1550 1550 1550 1551
1505 1507 1508 1509 1511 1513 1514 1515 1516 1517 1518 1519 1520 1521 1521 1522 1523 1524 1524 1525 1526 1526 1526 1526 1526 1526 1525 1525 1525 1524 1524 1524 1523 1523 1523 1523 1524 1525 1525 1526 1526 1526 1527 1527 1527 1527 1527 1527 1528 1530 1531 1532 1533 1534 1535 1535 1535 1536 1537 1537 1536 1537 1537 1538 1539 1539 1540 1541 1541 1541 1542 1542 1542 1544 1544 1545 1545 1546 1546 1547 1548 1548 1548 1549 1549
1504 1505 1506 1508 1510 1512 1513 1515 1516 1517 1518 1519 1520 1521 1521 1522 1523 1524 1525 1525 1526 1526 1526 1526 1526 1526 1525 1525 1525 1524 1524 1523 1523 1523 1523 1523 1523 1524 1524 1525 1525 1526 1526 1527 1527 1527 1527 1528 1528 1529 1529 1531 1532 1534 1535 1534 1534 1535 1536 1535 1535 1536 1536 1536 1537 1537 1539 1539 1539 1539 1540 1540 1541 1541 1542 1542 1543 1543 1544 1545 1546 1546 1547 1547 1547
1502 1503 1505 1506 1509 1511 1512 1514 1515 1517 1518 1519 1519 1520 1521 1521 1522 1524 1524 1525 1526 1526 1526 1526 1526 1526 1526 1525 1525 1524 1524 1523 1523 1522 1522 1523 1523 1523 1524 1524 1525 1525 1526 1526 1527 1527 1528 1528 1529 1529 1529 1529 1531 1533 1533 1534 1533 1533 1533 1533 1534 1534 1534 1534 1535 1535 1536 1537 1537 1537 1538 1539 1539 1540 1540 1540 1541 1541 1542 1543 1543 1544 1545 1545 1546
1500 1502 1504 1506 1508 1510 1511 1513 1515 1516 1517 1518 1519 1520 1521 1521 1522 1523 1524 1525 1526 1526 1526 1526 1526 1526 1526 1525 1525 1525 1524 1524 1523 1523 1523 1522 1522 1523 1523 1524 1524 1525 1525 1526 1526 1527 1527 1528 1528 1528 1528 1529 1530 1530 1531 1531 1532 1531 1532 1532 1533 1533 1532 1533 1534 1533 1534 1534 1534 1535 1536 1537 1538 1538 1538 1538 1539 1539 1540 1540 1541 1542 1543 1543 1544
1498 1501 1504 1506 1507 1509 1510 1512 1514 1515 1516 1517 1518 1519 1520 1521 1521 1523 1524 1525 1525 1526 1526 1526 1526 1526 1526 1526 1526 1526 1525 1525 1524 1524 1523 1523 1523 1523 1523 1523 1524 1525 1525 1526 1526 1527 1527 1527 1527 1527 1528 1528 1529 1529 1530 1530 1530 1530 1530 1531 1531 1532 1532 1532 1533 1533 1532 1532 1532 1533 1534 1535 1535 1536 1536 1536 1537 1537 1537 1538 1538 1539 1540 1541 1541
1497 1500 1503 1505 1507 1509 1510 1512 1513 1514 1515 1516 1517 1518 1519 1520 1521 1522 1523 1524 1525 1526 1526 1526 1526 1526 1526 1526 1526 1526 1526 1526 1526 1525 1525 1524 1524 1523 1523 1524 1524 1524 1525 1525 1526 1526 1526 1526 1526 1527 1527 1527 1527 1528 1529 1529 1529 1529 1530 1530 1530 1531 1531 1531 1532 1532 1532 1530 1530 1531 1532 1532 1533 1533 1534 1534 1534 1535 1535 1535 1536 1537 1537 1538 1539
1496 1498 1501 1504 1506 1508 1510 1511 1513 1514 1515 1516 1516 1517 1519 1520 1520 1521 1522 1523 1524 1525 1525 1526 1526 1526 1526 1527 1527 1527 1526 1526 1526 1526 1526 1525 1525 1525 1524 1524 1524 1525 1525 1525 1526 1526 1526 1526 1526 1527 1527 1527 1527 1527 1528 1528 1528 1528 1529 1529 1529 1529 1530 1530 1531 1531 1531 1530 1528 1529 1530 1530 1530 1531 1532 1533 1533 1533 1533 1533 1534 1534 1534 1535 1536
1494 1497 1500 1502 1505 1506 1508 1509 1511 1512 1513 1514 1515 1516 1517 1518 1520 1520 1521 1523 1523 1524 1524 1525 1525 1525 1526 1526 1527 1527 1527 1527 1527 1526 1527 1526 1526 1526 1525 1525 1525 1525 1525 1526 1526 1526 1526 1526 1526 1526 1526 1526 1526 1526 1526 1526 1527 1527 1527 1527 1528 1528 1528 1529 1529 1529 1529 1529 1528 1527 1528 1528 1527 1527 1529 1531 1531 1531 1531 1531 1531 1531 1532 1532 1533
1493 1496 1498 1501 1503 1504 1506 1507 1509 1510 1511 1513 1514 1515 1516 1517 1518 1519 1520 1522 1522 1523 1523 1524 1524 1525 1525 1526 1527 1527 1527 1527 1527 1527 1527 1527 1527 1527 1526 1526 1525 1525 1525 1526 1526 1526 1526 1525 1525 1525 1525 1525 1525 1524 1524 1525 1525 1525 1525 1526 1526 1526 1527 1527 1527 1528 1528 1528 1527 1527 1526 1526 1525 1524 1525 1527 1528 1528 1528 1529 1529 1529 1530 1530 1531